Date,TemperatureHighF,TemperatureAvgF,TemperatureLowF,DewpointHighF,DewpointAvgF,DewpointLowF,HumidityHigh,HumidityAvg,HumidityLow,PressureMaxIn,PressureMinIn,WindSpeedMaxMPH,WindSpeedAvgMPH,GustSpeedMaxMPH,PrecipitationSumIn
2013-1-8,50.9,39.0,30.4,34.0,30.5,28.0,92,74,51,30.25,30.22,7,1,9,0.00
2013-1-9,54.9,41.4,31.2,46.0,38.1,29.0,97,88,68,30.51,30.23,8,1,11,0.00
2013-1-10,53.0,42.0,31.0,51.0,39.3,30.0,97,90,68,30.51,30.01,8,2,11,0.32
2013-1-11,62.7,56.0,48.9,55.0,51.5,45.0,97,85,67,30.01,29.87,14,4,19,0.71
2013-1-12,66.0,60.6,46.5,63.0,57.7,44.0,97,90,84,29.98,29.69,13,4,23,0.16
2013-1-13,66.6,42.0,27.3,62.0,40.6,25.0,97,94,86,30.23,29.65,19,3,23,1.88
2013-1-14,28.5,24.9,21.6,24.0,21.0,19.0,89,85,76,30.47,30.25,8,2,12,0.00
2013-1-15,33.8,26.9,20.2,26.0,22.3,18.0,92,83,71,30.39,30.11,10,3,17,0.00
2013-1-16,35.4,31.9,29.8,27.0,26.0,24.0,86,79,63,30.14,30.03,7,1,8,0.00
2013-1-17,48.3,33.9,26.3,36.0,26.7,21.0,94,76,49,30.45,30.12,8,2,17,0.00
2013-1-18,44.5,31.6,17.2,27.0,22.0,15.0,94,70,42,30.55,30.26,9,3,15,0.00
2013-1-19,55.6,47.0,39.7,35.0,29.1,24.0,64,51,40,30.26,29.95,15,7,28,0.00
2013-1-20,45.9,35.8,24.8,37.0,18.6,10.0,73,51,32,30.28,30.01,8,2,19,0.00
2013-1-21,27.1,21.5,12.8,18.0,9.6,1.0,81,61,40,30.34,30.18,12,3,20,0.00
2013-1-22,20.0,13.7,7.6,6.0,0.7,-2.0,72,57,43,30.47,30.34,9,2,13,0.00
2013-1-23,35.9,22.6,9.2,21.0,11.7,4.0,84,65,43,30.43,30.14,10,2,13,0.00
2013-1-24,30.6,24.2,17.0,20.0,7.3,-1.0,78,51,29,30.61,30.20,12,3,20,0.00
2013-1-25,29.6,23.6,19.1,23.0,15.7,4.0,90,74,44,30.38,30.11,7,1,10,0.00
2013-1-26,40.5,25.9,13.7,23.0,17.5,11.0,93,73,43,30.43,30.19,7,1,10,0.00
2013-1-27,43.3,32.1,20.5,42.0,26.5,16.0,95,80,60,30.43,30.12,7,2,11,0.21
2013-1-28,56.3,52.0,43.8,55.0,49.1,42.0,96,90,73,30.14,30.02,19,6,25,0.19
2013-1-29,66.8,60.1,54.8,60.0,56.0,52.0,90,86,80,30.03,29.46,17,7,29,0.00
2013-1-30,68.2,48.5,29.6,62.0,44.8,24.0,97,87,76,29.71,29.30,19,6,37,1.49
2013-1-31,32.6,26.9,13.6,27.0,19.9,7.0,93,75,61,30.21,29.74,19,6,25,0.00
2013-2-1,20.3,13.5,5.6,11.0,5.2,0.0,80,70,58,30.51,30.22,12,3,17,0.03
2013-2-2,32.4,26.6,17.3,28.0,21.5,11.0,92,81,63,30.35,30.05,8,3,17,0.05
2013-2-3,29.3,23.6,13.9,24.0,19.3,12.0,92,83,68,30.18,30.01,9,2,17,0.00
2013-2-4,40.9,29.4,12.0,38.0,25.2,10.0,95,85,57,30.16,29.84,9,2,19,0.18
2013-2-5,46.7,35.8,26.6,37.0,31.6,25.0,95,85,67,30.06,29.89,8,2,13,0.00
2013-2-6,45.8,35.0,29.9,33.0,29.3,27.0,93,80,61,30.27,30.07,8,1,11,0.00
2013-2-7,65.8,46.9,30.8,48.0,36.6,29.0,92,71,36,30.17,29.81,8,2,13,0.13
2013-2-8,50.1,36.2,32.7,48.0,32.0,27.0,94,85,79,30.36,29.84,8,3,16,0.18
2013-2-9,49.8,35.6,23.6,31.0,26.5,22.0,94,71,45,30.41,30.16,7,2,9,0.00
2013-2-10,53.5,46.0,37.6,50.0,38.3,25.0,92,75,56,30.16,29.76,16,5,29,0.23
2013-2-11,54.6,45.5,29.8,51.0,34.6,26.0,89,67,51,30.10,29.76,17,7,28,0.00
2013-2-12,51.4,36.9,24.0,32.0,27.9,22.0,95,73,42,30.17,29.91,6,1,11,0.00
2013-2-13,42.2,35.4,30.5,33.0,30.6,28.0,93,83,65,29.92,29.80,7,2,11,0.21
2013-2-14,54.5,42.6,34.3,42.0,35.4,31.0,91,77,53,30.02,29.87,10,4,15,0.00
2013-2-15,41.1,33.0,23.0,33.0,25.4,18.0,94,75,48,30.21,30.01,10,2,20,0.00
2013-2-16,34.0,25.4,19.8,19.0,15.6,11.0,91,68,44,30.20,30.13,11,2,23,0.00
2013-2-17,40.2,25.7,12.9,20.0,15.2,10.0,92,67,37,30.28,30.17,8,1,11,0.00
2013-2-18,61.3,45.4,30.6,44.0,30.9,17.0,89,59,36,30.17,29.69,19,7,29,0.42
2013-2-19,46.7,32.0,23.6,44.0,24.3,14.0,92,74,61,30.22,29.68,17,7,28,0.13
2013-2-20,30.3,24.0,16.8,16.0,13.7,10.0,80,65,53,30.37,30.22,11,2,13,0.00
2013-2-21,35.9,26.1,15.9,30.0,20.5,13.0,92,80,57,30.35,29.98,12,4,18,0.03
2013-2-22,41.6,37.0,31.8,36.0,33.8,28.0,97,88,78,30.03,29.85,14,3,17,0.27
2013-2-23,44.2,33.6,23.8,28.0,24.5,21.0,92,71,48,30.04,29.94,7,2,12,0.00
2013-2-24,51.7,32.3,18.8,30.0,23.8,17.0,94,74,42,30.17,30.00,4,0,8,0.00
2013-2-25,51.6,37.2,24.0,30.0,25.7,22.0,92,67,39,30.13,29.78,17,4,21,0.00
2013-2-26,47.2,42.2,38.6,45.0,37.7,26.0,96,85,55,29.77,29.37,13,4,23,0.86
2013-2-27,39.7,35.6,32.8,37.0,32.7,30.0,94,89,78,29.79,29.55,14,6,20,0.04
2013-2-28,36.9,34.0,31.8,34.0,31.8,29.0,94,91,87,30.02,29.78,12,4,15,0.04
2013-3-1,36.0,33.3,31.8,33.0,31.4,30.0,95,92,86,30.07,29.98,6,1,13,0.09
2013-3-2,32.0,30.7,28.7,30.0,25.2,21.0,92,80,67,30.14,30.05,11,2,14,0.02
2013-3-3,39.2,29.5,20.9,24.0,20.1,13.0,91,71,36,30.16,30.09,11,2,13,0.03
2013-3-4,41.9,31.7,17.4,27.0,21.0,15.0,93,68,46,30.16,29.92,7,2,14,0.00
2013-3-5,42.9,37.5,29.0,41.0,32.7,27.0,95,84,57,29.92,29.64,16,3,27,0.18
2013-3-6,32.6,30.7,29.1,30.0,28.4,27.0,93,91,87,30.33,29.82,6,2,17,0.07
2013-3-7,37.7,32.8,29.1,32.0,28.8,27.0,93,85,73,30.41,30.31,4,1,6,0.18
2013-3-8,53.0,37.4,25.5,34.0,28.6,24.0,95,73,42,30.48,30.34,10,2,15,0.00
2013-3-9,60.7,47.5,31.5,36.0,31.8,27.0,84,57,35,30.33,29.98,8,2,18,0.00
2013-3-10,68.6,60.2,54.0,48.0,37.0,33.0,78,43,28,29.98,29.73,17,7,27,0.02
2013-3-11,55.0,47.1,35.8,52.0,43.0,31.0,94,85,76,29.92,29.65,15,6,22,0.34
2013-3-12,48.2,38.9,34.1,33.0,28.4,24.0,90,68,44,30.11,29.93,15,4,18,0.02
2013-3-13,35.3,30.8,23.4,31.0,21.5,16.0,92,69,55,30.39,30.09,11,3,25,0.00
2013-3-14,44.4,29.4,16.4,32.0,22.7,14.0,94,79,43,30.41,30.22,10,2,11,0.01
2013-3-15,61.8,43.7,27.4,44.0,35.8,26.0,96,77,48,30.22,29.72,6,1,13,0.07
2013-3-16,64.5,57.1,41.1,51.0,45.3,36.0,83,66,54,29.99,29.64,14,5,22,0.00
2013-3-17,40.9,35.7,32.9,36.0,33.4,31.0,95,91,82,30.10,29.90,12,5,20,1.01
2013-3-18,49.1,40.7,35.1,46.0,38.5,33.0,98,92,83,29.90,29.65,11,4,19,0.85
2013-3-19,47.1,36.6,28.5,35.0,24.1,16.0,94,64,31,30.17,29.88,11,3,20,0.00
2013-3-20,37.1,28.5,20.3,23.0,17.9,13.0,92,67,45,30.16,30.07,14,2,20,0.00
2013-3-21,40.3,27.0,18.8,17.0,12.6,10.0,75,56,33,30.10,30.02,7,1,12,0.00
2013-3-22,46.1,31.6,14.3,24.0,16.7,12.0,92,59,31,30.11,30.00,5,1,8,0.00
2013-3-23,58.6,44.4,34.7,29.0,26.2,23.0,74,52,31,30.05,29.83,11,3,15,0.00
2013-3-24,43.1,36.3,33.1,34.0,31.9,26.0,96,85,52,29.82,29.40,17,5,19,0.41
2013-3-25,33.7,31.9,30.2,32.0,29.6,28.0,94,91,88,30.05,29.48,10,3,16,0.14
2013-3-26,40.9,35.4,31.0,32.0,27.8,25.0,92,75,53,30.31,30.06,8,2,15,0.01
2013-3-27,45.9,34.8,23.7,29.0,25.4,22.0,95,71,49,30.37,30.31,8,2,14,0.01
2013-3-28,58.1,38.4,20.1,31.0,25.6,18.0,94,65,33,30.41,30.29,6,1,9,0.00
2013-3-29,61.0,43.1,27.1,42.0,33.4,25.0,92,72,43,30.33,30.19,4,1,9,0.00
2013-3-30,62.0,47.2,32.4,46.0,36.9,31.0,97,72,36,30.23,29.93,8,2,16,0.00
2013-3-31,61.2,50.3,42.5,50.0,45.0,40.0,96,83,54,29.92,29.81,15,2,15,0.14
2013-4-1,51.9,43.2,29.7,39.0,27.5,19.0,93,57,28,30.16,29.83,14,2,18,0.00
2013-4-2,52.3,35.6,20.8,25.0,19.6,11.0,92,58,22,30.31,30.16,7,1,14,0.00
2013-4-3,54.3,39.1,21.1,23.0,19.8,18.0,88,51,25,30.40,30.28,10,2,20,0.00
2013-4-4,60.0,45.5,32.9,26.0,22.3,18.0,66,43,22,30.30,30.00,13,2,14,0.00
2013-4-5,68.6,45.5,26.2,38.0,28.5,23.0,90,58,22,30.13,30.00,17,2,18,0.00
2013-4-6,73.0,55.7,36.5,41.0,34.6,29.0,80,48,28,30.13,29.86,11,3,23,0.00
2013-4-7,74.4,65.1,57.6,56.0,48.5,39.0,87,56,40,29.94,29.84,12,5,21,0.01
2013-4-8,74.2,63.0,52.7,58.0,53.3,49.0,94,72,54,29.94,29.84,16,4,23,0.00
2013-4-9,80.3,67.5,52.0,62.0,57.1,50.0,93,71,48,29.99,29.89,13,4,23,0.00
2013-4-10,83.3,73.8,65.3,66.0,61.8,59.0,82,67,51,29.91,29.69,14,5,24,0.00
2013-4-11,76.0,63.2,49.6,62.0,58.5,48.0,96,86,53,29.74,29.50,11,4,22,1.13
2013-4-12,50.0,43.5,36.1,47.0,35.4,32.0,93,74,54,29.97,29.61,16,4,24,0.01
2013-4-13,60.3,45.2,29.7,38.0,34.0,28.0,96,69,40,30.05,29.97,15,3,20,0.01
2013-4-14,75.0,55.9,36.1,47.0,40.3,34.0,93,61,29,30.01,29.79,15,3,23,0.00
2013-4-15,74.7,64.5,57.7,59.0,52.7,47.0,77,66,53,29.95,29.85,10,4,17,0.00
2013-4-16,79.2,66.8,57.1,68.0,60.7,52.0,96,81,65,30.10,29.89,10,3,20,0.42
2013-4-17,80.6,65.1,56.7,71.0,61.8,55.0,97,89,70,30.11,29.86,9,2,19,0.21
2013-4-18,81.0,73.1,64.6,67.0,62.0,57.0,91,70,50,29.85,29.55,16,6,26,0.09
2013-4-19,64.2,43.0,38.9,62.0,36.8,31.0,94,79,64,30.04,29.54,13,4,21,0.86
2013-4-20,57.0,41.9,29.2,34.0,30.0,25.0,97,67,32,30.38,30.05,11,2,15,0.00
2013-4-21,64.7,47.4,33.5,36.0,31.9,29.0,86,59,30,30.49,30.31,13,3,15,0.00
2013-4-22,73.9,54.0,33.2,45.0,37.9,31.0,93,60,29,30.33,30.07,6,1,14,0.00
2013-4-23,67.1,58.8,45.9,57.0,49.4,41.0,87,72,62,30.10,29.80,15,4,18,0.01
2013-4-24,67.0,46.9,33.3,56.0,42.2,32.0,94,84,64,30.26,29.79,10,3,20,0.71
2013-4-25,60.5,44.7,28.8,43.0,34.3,28.0,97,71,38,30.38,30.25,11,2,19,0.00
2013-4-26,67.3,49.4,32.5,43.0,35.8,31.0,94,64,33,30.43,30.30,7,1,11,0.00
2013-4-27,60.7,53.0,44.8,54.0,47.8,41.0,93,82,72,30.34,29.96,6,1,11,0.00
2013-4-28,61.6,57.0,53.9,57.0,54.4,52.0,96,91,79,29.95,29.84,8,2,12,0.08
2013-4-29,72.8,60.1,54.0,56.0,53.3,51.0,96,80,49,30.00,29.89,4,1,8,0.00
2013-4-30,86.9,66.3,48.5,59.0,53.6,47.0,96,67,37,30.00,29.91,8,2,9,0.00
2013-5-1,86.6,67.4,50.4,60.0,55.2,49.0,97,69,36,30.11,30.01,7,1,8,0.00
2013-5-2,78.1,68.1,58.1,61.0,57.2,55.0,91,69,51,30.14,30.02,7,2,14,0.00
2013-5-3,78.0,65.4,59.0,61.0,57.8,55.0,96,79,47,30.02,29.83,9,2,14,0.64
2013-5-4,60.7,56.1,52.2,58.0,52.6,50.0,97,88,69,29.98,29.85,6,1,10,0.64
2013-5-5,54.4,52.8,50.9,53.0,51.4,50.0,97,95,90,29.96,29.87,8,3,15,0.63
2013-5-6,69.7,58.8,51.0,58.0,54.3,50.0,97,86,64,29.92,29.81,11,3,17,0.00
2013-5-7,74.1,61.9,53.9,59.0,55.4,52.0,96,81,54,29.97,29.89,9,2,11,0.01
2013-5-8,80.2,63.1,49.4,64.0,55.5,48.0,98,79,41,30.01,29.92,9,1,12,0.12
2013-5-9,80.0,64.7,51.3,66.0,57.6,50.0,98,80,41,30.01,29.89,8,2,13,0.14
2013-5-10,67.6,64.3,59.3,64.0,61.4,57.0,95,90,85,29.91,29.79,5,1,9,0.38
2013-5-11,65.7,55.8,50.1,57.0,49.5,35.0,93,80,54,30.04,29.88,8,2,13,0.07
2013-5-12,60.7,48.8,35.1,38.0,33.9,27.0,96,60,33,30.16,30.05,13,2,21,0.00
2013-5-13,67.7,50.1,32.5,40.0,35.7,31.0,97,64,28,30.22,30.12,12,2,14,0.00
2013-5-14,84.1,65.2,43.1,62.0,50.5,38.0,89,62,44,30.14,29.83,12,4,19,0.00
2013-5-15,85.9,75.6,66.7,63.0,60.0,58.0,76,60,42,29.93,29.83,10,4,21,0.00
2013-5-16,72.6,66.8,60.9,65.0,60.5,54.0,96,81,62,29.95,29.84,7,1,12,0.21
2013-5-17,74.4,65.8,57.3,67.0,62.0,57.0,99,88,66,30.01,29.95,5,1,9,0.01
2013-5-18,82.1,70.2,63.6,69.0,64.8,61.0,94,84,59,30.01,29.91,5,1,7,0.00
2013-5-19,86.7,73.1,57.9,73.0,66.4,57.0,98,81,59,29.95,29.82,7,1,10,0.00
2013-5-20,84.8,76.1,66.9,72.0,69.1,66.0,95,80,58,29.94,29.81,8,3,14,0.00
2013-5-21,80.7,72.3,62.8,68.0,65.0,61.0,96,78,59,29.94,29.76,11,3,23,0.30
2013-5-22,77.5,69.3,61.7,66.0,62.9,59.0,93,80,57,29.78,29.71,11,3,19,0.01
2013-5-23,69.7,62.1,52.2,61.0,56.7,47.0,96,83,65,30.13,29.78,10,2,15,0.05
2013-5-24,71.9,55.2,41.9,49.0,44.6,39.0,92,71,35,30.35,30.13,7,2,12,0.00
2013-5-25,71.1,55.3,39.8,50.0,45.0,39.0,97,72,38,30.38,30.18,9,1,13,0.01
2013-5-26,76.9,62.0,51.1,58.0,53.1,49.0,95,75,48,30.27,30.11,5,1,12,0.07
2013-5-27,83.9,70.4,57.7,66.0,59.2,54.0,94,70,47,30.11,29.90,12,3,19,0.14
2013-5-28,83.8,74.1,63.4,70.0,64.9,61.0,96,75,57,29.98,29.87,13,3,19,0.00
2013-5-29,87.6,75.5,62.1,68.0,63.3,59.0,91,67,46,30.04,29.95,9,2,16,0.00
2013-5-30,84.5,77.7,69.6,71.0,66.8,62.0,83,70,60,30.05,29.93,11,4,18,0.00
2013-5-31,78.1,73.1,66.7,72.0,68.1,65.0,95,84,73,29.98,29.86,11,4,20,0.66
2013-6-1,74.5,69.2,63.5,70.0,65.9,62.0,96,89,77,29.93,29.75,8,3,15,0.55
2013-6-2,73.7,67.9,62.2,65.0,61.8,59.0,96,82,65,29.94,29.83,7,2,11,0.00
2013-6-3,71.4,62.7,54.9,58.0,55.0,52.0,94,77,53,30.06,29.93,6,1,10,0.00
2013-6-4,78.5,63.4,48.7,62.0,55.1,48.0,97,77,52,30.10,30.00,6,1,13,0.00
2013-6-5,86.0,69.3,54.9,67.0,59.4,52.0,92,73,47,30.02,29.81,5,1,8,0.00
2013-6-6,83.0,70.4,64.1,70.0,65.4,62.0,97,85,57,29.82,29.73,9,0,9,0.97
2013-6-7,80.5,67.5,61.2,65.0,61.8,60.0,97,83,52,29.85,29.75,6,1,11,0.00
2013-6-8,81.9,70.2,61.4,67.0,62.0,59.0,95,77,48,29.98,29.83,4,1,8,0.00
2013-6-9,79.7,69.7,59.6,70.0,63.4,58.0,96,82,52,29.99,29.81,6,1,9,0.00
2013-6-10,77.9,69.9,63.2,67.0,64.7,61.0,96,84,63,29.88,29.76,9,2,15,0.05
2013-6-11,85.3,71.7,57.8,70.0,64.3,57.0,98,79,54,29.97,29.86,9,1,9,0.00
2013-6-12,91.1,81.5,69.8,77.0,73.1,68.0,95,77,58,29.92,29.71,10,2,17,0.00
2013-6-13,83.4,77.7,65.8,73.0,65.0,53.0,78,66,45,29.93,29.64,10,3,22,0.01
2013-6-14,84.7,67.5,52.5,66.0,58.5,51.0,97,75,44,30.04,29.92,6,1,9,0.00
2013-6-15,86.8,72.1,57.5,67.0,61.9,56.0,97,73,47,30.08,29.93,8,1,13,0.00
2013-6-16,78.5,72.2,67.0,71.0,67.1,64.0,96,84,72,30.00,29.90,5,1,9,0.08
2013-6-17,89.7,73.7,65.0,76.0,68.3,64.0,97,85,53,29.96,29.82,9,1,15,0.91
2013-6-18,87.4,70.1,62.2,72.0,64.6,60.0,98,84,50,29.95,29.82,6,1,21,0.26
2013-6-19,87.0,71.5,61.0,69.0,64.6,60.0,98,81,51,30.06,29.94,6,1,10,0.00
2013-6-20,89.5,73.2,59.6,70.0,63.9,59.0,98,76,42,30.15,30.06,5,0,7,0.00
2013-6-21,89.0,74.7,60.7,74.0,66.9,59.0,97,79,50,30.15,30.04,5,1,9,0.00
2013-6-22,89.6,76.9,66.4,74.0,69.5,65.0,97,79,54,30.13,30.02,11,2,17,0.00
2013-6-23,85.9,74.4,64.9,73.0,68.9,64.0,97,83,60,30.09,30.01,6,1,14,0.25
2013-6-24,77.9,72.9,70.1,71.0,69.3,68.0,95,88,78,30.11,30.01,5,1,9,0.03
2013-6-25,90.7,78.5,66.5,78.0,72.1,65.0,98,82,59,30.03,29.86,6,2,13,0.00
2013-6-26,82.0,71.8,65.4,76.0,69.3,64.0,97,92,74,29.97,29.68,11,2,23,3.87
2013-6-27,90.3,76.1,68.1,79.0,72.2,67.0,99,89,59,29.79,29.72,5,1,11,0.01
2013-6-28,88.5,78.3,69.6,70.0,65.4,59.0,95,67,40,29.73,29.59,7,2,15,0.00
2013-6-29,83.0,70.5,61.8,71.0,64.6,60.0,97,82,58,29.64,29.55,7,1,14,0.52
2013-6-30,78.5,67.5,63.5,68.0,64.9,62.0,98,92,65,29.81,29.62,7,1,14,0.09
2013-7-1,77.8,67.9,64.3,69.0,64.7,62.0,97,90,72,29.89,29.78,8,3,13,0.12
2013-7-2,80.2,70.4,64.7,69.0,65.5,63.0,96,85,65,29.99,29.86,8,2,9,0.00
2013-7-3,81.1,70.1,59.2,69.0,64.5,58.0,98,83,62,30.07,29.98,6,1,15,0.00
2013-7-4,74.7,68.9,62.8,70.0,66.6,62.0,98,92,85,30.10,30.03,2,0,7,0.00
2013-7-5,81.0,72.5,63.9,71.0,67.7,63.0,97,86,69,30.09,30.03,5,0,7,0.00
2013-7-6,75.2,69.5,66.0,69.0,66.5,65.0,97,90,78,30.08,30.02,5,1,8,0.12
2013-7-7,86.9,74.0,66.0,71.0,67.6,65.0,97,82,52,30.08,30.00,4,1,8,0.00
2013-7-8,88.1,74.7,64.2,76.0,69.5,63.0,98,85,63,30.11,30.01,6,1,11,0.00
2013-7-9,90.4,80.5,72.0,77.0,73.9,71.0,96,81,59,30.06,29.94,6,1,11,0.01
2013-7-10,86.7,79.0,68.6,78.0,73.1,67.0,95,82,62,30.00,29.79,15,2,24,0.75
2013-7-11,84.3,73.6,63.8,70.0,64.3,59.0,97,75,47,29.98,29.89,10,2,15,0.00
2013-7-12,85.9,69.6,57.5,64.0,59.4,56.0,95,74,42,30.08,29.99,9,2,13,0.00
2013-7-13,87.8,69.8,59.1,69.0,63.5,58.0,96,82,51,30.07,30.00,7,1,14,0.04
2013-7-14,93.3,77.0,62.9,75.0,69.4,62.0,98,80,50,30.15,30.06,7,1,8,0.07
2013-7-15,92.1,78.8,69.7,75.0,71.8,69.0,98,81,54,30.25,30.15,8,1,12,0.01
2013-7-16,95.8,80.3,68.1,77.0,71.8,67.0,98,78,49,30.29,30.22,4,1,8,0.00
2013-7-17,96.6,81.6,69.9,78.0,73.8,69.0,98,79,51,30.29,30.14,5,1,11,0.00
2013-7-18,96.3,82.2,70.8,78.0,74.2,70.0,98,79,49,30.18,29.99,3,1,7,0.00
2013-7-19,92.0,81.7,73.5,77.0,74.1,71.0,96,79,58,30.01,29.86,6,2,13,0.00
2013-7-20,90.4,76.6,70.7,77.0,71.5,67.0,96,85,58,29.90,29.84,8,1,15,0.14
2013-7-21,90.5,76.5,66.5,75.0,70.4,66.0,98,83,54,29.94,29.83,9,1,9,2.01
2013-7-22,84.4,74.0,69.0,75.0,70.6,68.0,98,90,69,29.91,29.75,6,1,10,0.32
2013-7-23,90.9,76.2,66.3,78.0,71.7,66.0,99,87,62,29.82,29.72,6,1,10,0.00
2013-7-24,81.7,69.5,61.1,69.0,61.2,57.0,92,76,52,29.96,29.81,8,2,12,0.00
2013-7-25,83.8,67.5,55.7,61.0,57.7,54.0,96,74,41,30.06,29.96,6,1,11,0.00
2013-7-26,82.9,67.4,54.5,68.0,60.2,53.0,98,80,49,30.06,29.95,8,1,9,0.03
2013-7-27,78.9,69.2,62.2,67.0,62.5,52.0,97,81,53,29.96,29.85,7,1,12,0.49
2013-7-28,76.7,62.3,48.2,58.0,52.5,47.0,98,73,44,30.05,29.94,7,1,12,0.00
2013-7-29,81.8,66.3,53.4,64.0,57.4,52.0,98,77,44,30.16,30.05,7,1,10,0.00
2013-7-30,79.2,66.6,58.8,68.0,62.6,57.0,96,87,61,30.17,30.07,4,0,10,0.11
2013-7-31,76.0,69.6,65.7,71.0,66.9,63.0,96,91,82,30.07,29.93,5,1,6,0.01
2013-8-1,85.9,73.2,63.5,68.0,65.0,61.0,98,78,46,30.00,29.93,5,1,12,0.00
2013-8-2,83.5,69.9,57.3,69.0,63.7,56.0,98,82,57,30.00,29.93,7,1,13,0.00
2013-8-3,88.7,74.5,65.9,75.0,68.6,64.0,96,82,59,30.02,29.92,9,1,15,0.05
2013-8-4,81.8,68.9,57.7,65.0,59.7,55.0,97,76,43,30.12,30.02,6,1,12,0.01
2013-8-5,83.5,68.6,53.9,66.0,59.8,53.0,98,76,45,30.09,29.91,5,1,8,0.00
2013-8-6,83.3,74.5,68.2,75.0,69.6,65.0,93,85,74,29.93,29.87,5,1,8,0.00
2013-8-7,85.8,76.7,69.9,75.0,72.8,68.0,97,88,67,29.91,29.83,5,1,9,0.00
2013-8-8,89.3,78.0,69.9,76.0,72.8,69.0,97,85,59,29.92,29.83,6,1,12,0.95
2013-8-9,88.0,75.7,71.0,75.0,71.8,70.0,98,89,61,29.99,29.88,5,0,7,0.01
2013-8-10,89.3,76.8,70.6,75.0,70.8,68.0,95,83,55,30.07,29.99,4,0,7,0.00
2013-8-11,87.5,75.4,65.7,72.0,68.2,64.0,98,80,50,30.07,30.02,6,1,11,0.00
2013-8-12,81.3,70.7,61.8,76.0,68.3,61.0,98,92,79,30.06,29.86,4,0,4,0.69
2013-8-13,80.9,72.5,60.7,72.0,66.5,53.0,97,82,57,30.05,29.85,7,1,11,0.00
2013-8-14,78.2,60.5,50.4,56.0,52.3,49.0,97,78,43,30.15,30.05,9,1,12,0.00
2013-8-15,76.4,61.0,48.3,59.0,53.7,47.0,98,79,49,30.15,30.06,10,1,11,0.00
2013-8-16,83.1,65.4,51.6,64.0,57.3,51.0,98,78,44,30.11,30.07,7,2,12,0.00
2013-8-17,86.4,69.1,59.3,67.0,60.6,56.0,91,76,45,30.15,30.06,6,1,9,0.00
2013-8-18,88.1,70.9,58.2,66.0,62.0,57.0,98,77,41,30.15,30.05,6,1,11,0.00
2013-8-19,90.8,71.7,58.2,70.0,62.8,57.0,98,77,40,30.11,30.01,4,0,8,0.00
2013-8-20,89.0,72.8,61.6,72.0,66.5,60.0,97,82,53,30.11,30.03,8,1,12,0.00
2013-8-21,90.6,75.3,64.5,74.0,68.8,63.0,98,82,50,30.12,30.02,6,1,7,0.00
2013-8-22,90.6,75.9,64.8,76.0,69.8,64.0,98,83,53,30.08,29.98,4,1,10,0.13
2013-8-23,90.7,76.4,67.6,71.0,67.9,65.0,96,78,45,30.08,30.00,11,2,11,0.00
2013-8-24,93.3,73.8,61.3,70.0,63.5,58.0,98,75,30,30.21,30.09,5,1,10,0.00
2013-8-25,91.7,72.2,57.0,71.0,62.3,56.0,98,75,34,30.29,30.18,5,0,8,0.00
2013-8-26,89.8,76.0,64.5,75.0,69.3,63.0,98,81,55,30.22,30.06,6,1,10,0.00
2013-8-27,90.5,78.1,69.2,78.0,72.6,68.0,98,84,62,30.08,29.95,5,1,10,0.00
2013-8-28,94.6,81.2,70.6,74.0,71.9,69.0,97,76,48,29.97,29.89,11,2,14,0.00
2013-8-29,96.0,80.4,70.3,76.0,71.4,68.0,97,77,45,29.98,29.91,6,1,9,0.00
2013-8-30,96.1,78.6,65.9,76.0,70.9,65.0,98,80,47,29.94,29.81,5,1,9,0.00
2013-8-31,96.8,81.6,70.2,79.0,73.1,68.0,95,77,51,29.88,29.69,14,2,22,0.16
2013-9-1,90.3,75.8,67.8,77.0,70.6,67.0,96,85,57,29.86,29.68,8,2,20,0.29
2013-9-2,89.0,75.4,65.5,74.0,68.1,65.0,98,80,49,29.86,29.78,8,1,10,0.00
2013-9-3,82.9,69.1,58.5,65.0,59.4,56.0,93,74,41,30.04,29.86,10,2,14,0.00
2013-9-4,87.0,66.7,51.6,65.0,58.0,51.0,98,77,40,30.14,30.04,6,0,9,0.00
2013-9-5,89.5,70.1,56.5,69.0,61.6,55.0,98,78,42,30.18,30.10,6,1,9,0.00
2013-9-6,89.7,72.0,60.4,71.0,63.9,58.0,96,78,44,30.17,30.05,4,1,6,0.00
2013-9-7,88.5,72.9,60.2,70.0,65.3,59.0,98,79,50,30.06,29.93,6,1,10,0.00
2013-9-8,85.2,74.5,66.1,72.0,68.9,65.0,98,84,52,29.96,29.90,5,1,8,0.01
2013-9-9,94.4,78.0,64.6,75.0,69.9,64.0,98,79,47,29.99,29.91,7,1,12,0.00
2013-9-10,95.3,77.6,70.0,76.0,72.2,68.0,97,85,52,30.09,29.98,8,1,11,0.89
2013-9-11,93.9,77.6,68.2,76.0,71.8,67.0,98,84,51,30.12,30.01,4,1,7,0.00
2013-9-12,80.9,73.8,68.2,72.0,68.8,59.0,96,85,66,30.01,29.89,4,1,9,0.08
2013-9-13,73.3,62.0,49.3,59.0,51.9,47.0,92,72,46,30.06,29.93,12,2,19,0.00
2013-9-14,79.5,57.5,43.4,51.0,47.0,42.0,97,73,31,30.17,30.05,7,1,11,0.00
2013-9-15,80.0,60.4,44.2,61.0,52.1,43.0,98,77,43,30.11,30.02,6,1,12,0.00
2013-9-16,71.4,65.2,59.2,61.0,59.3,55.0,91,82,68,30.23,30.04,11,3,15,0.00
2013-9-17,80.1,62.9,51.3,63.0,55.0,50.0,95,78,42,30.25,30.11,5,1,10,0.00
2013-9-18,78.0,64.8,55.3,70.0,62.0,54.0,96,91,74,30.13,30.03,4,0,7,0.04
2013-9-19,83.4,71.8,64.1,74.0,68.4,63.0,98,89,72,30.09,29.93,7,1,10,0.20
2013-9-20,79.3,71.3,66.7,71.0,68.4,66.0,97,90,74,29.95,29.80,7,1,11,0.43
2013-9-21,73.8,63.3,51.4,66.0,56.3,50.0,97,80,45,29.87,29.75,9,1,11,0.32
2013-9-22,76.6,57.6,45.2,56.0,50.0,44.0,98,79,43,29.99,29.87,9,2,13,0.00
2013-9-23,80.3,58.5,44.0,55.0,50.0,43.0,97,77,38,30.06,29.97,5,1,14,0.01
2013-9-24,82.6,62.8,49.8,66.0,56.5,48.0,94,82,50,30.01,29.85,4,0,7,0.00
2013-9-25,83.8,67.7,59.2,66.0,60.8,58.0,96,81,47,29.88,29.81,9,1,11,0.00
2013-9-26,85.3,64.6,51.2,59.0,54.2,50.0,98,75,30,30.04,29.88,5,1,11,0.00
2013-9-27,87.8,63.7,48.8,63.0,54.2,48.0,98,76,33,30.14,30.04,3,0,8,0.00
2013-9-28,82.9,64.5,50.4,65.0,57.2,49.0,98,80,46,30.13,30.02,9,1,11,0.00
2013-9-29,64.0,60.7,55.6,61.0,59.1,54.0,97,94,82,30.03,29.98,7,1,10,0.25
2013-9-30,74.5,65.3,60.5,66.0,62.5,59.0,98,91,74,30.00,29.92,5,1,9,0.00
2013-10-1,81.1,67.5,57.7,68.0,62.9,57.0,98,86,59,30.06,29.98,8,1,9,0.00
2013-10-2,77.8,69.7,61.3,72.0,67.6,60.0,98,93,81,30.08,30.00,5,0,7,0.19
2013-10-3,83.4,71.5,65.9,72.0,67.7,65.0,98,88,62,30.06,29.94,6,1,10,0.08
2013-10-4,82.9,72.9,64.0,74.0,68.2,63.0,98,86,68,30.04,29.97,7,1,10,0.00
2013-10-5,73.7,70.9,68.0,72.0,68.9,66.0,98,93,88,30.01,29.86,7,1,10,0.80
2013-10-6,68.0,60.4,53.7,67.0,58.9,50.0,98,95,79,29.86,29.76,7,1,13,2.27
2013-10-7,65.4,55.0,45.7,50.0,46.9,44.0,95,76,54,30.16,29.92,9,2,11,0.00
2013-10-8,73.8,54.0,41.2,52.0,46.0,40.0,98,79,38,30.24,30.15,10,1,15,0.00
2013-10-9,79.7,56.9,42.2,61.0,50.4,41.0,98,81,47,30.20,30.11,5,1,7,0.00
2013-10-10,80.5,59.4,46.1,60.0,52.7,45.0,98,81,42,30.17,30.05,5,0,9,0.25
2013-10-11,82.2,58.7,43.9,56.0,50.4,43.0,98,78,33,30.09,30.00,4,0,6,0.00
2013-10-12,79.7,60.6,46.1,64.0,54.8,45.0,98,83,49,30.10,30.02,5,1,8,0.00
2013-10-13,77.4,63.3,48.4,60.0,54.1,46.0,98,75,36,30.30,30.11,8,1,12,0.00
2013-10-14,75.8,56.4,44.1,56.0,47.8,42.0,93,75,41,30.31,30.14,6,1,10,0.00
2013-10-15,68.4,60.4,51.0,64.0,58.4,49.0,96,93,82,30.14,29.93,6,1,10,0.12
2013-10-16,64.1,58.1,45.4,63.0,53.7,44.0,98,86,60,29.98,29.87,6,1,9,0.26
2013-10-17,59.6,48.0,40.7,49.0,44.8,40.0,98,89,67,29.99,29.90,7,1,13,0.14
2013-10-18,67.4,50.8,38.5,52.0,44.5,38.0,98,82,47,30.04,29.94,8,1,13,0.01
2013-10-19,55.4,47.6,37.3,47.0,42.9,36.0,95,85,56,30.02,29.84,9,1,12,0.20
2013-10-20,63.8,48.2,35.9,46.0,40.7,35.0,97,78,50,30.05,29.98,10,2,15,0.01
2013-10-21,64.9,51.7,39.5,50.0,44.6,38.0,97,78,57,30.00,29.91,9,2,14,0.02
2013-10-22,53.9,44.2,30.5,44.0,35.6,29.0,97,74,45,30.06,29.80,5,0,9,0.01
2013-10-23,47.2,42.6,36.9,44.0,36.6,32.0,91,80,62,30.09,29.78,9,2,16,0.01
2013-10-24,41.8,37.4,29.0,37.0,32.0,27.0,92,82,61,30.34,30.09,5,0,16,0.03
2013-10-25,51.9,34.8,23.6,33.0,27.4,22.0,96,78,39,30.50,30.32,6,0,9,0.01
2013-10-26,58.8,42.3,27.0,42.0,33.7,25.0,94,74,51,30.31,29.97,10,2,19,0.00
2013-10-27,61.4,42.3,28.6,40.0,33.5,27.0,97,75,38,30.12,30.04,6,1,10,0.00
2013-10-28,69.4,44.9,29.2,41.0,34.2,28.0,97,72,29,30.28,30.09,7,1,11,0.00
2013-10-29,58.7,46.4,34.2,52.0,43.3,33.0,97,89,77,30.33,30.16,3,0,8,0.16
2013-10-30,68.1,61.1,53.6,65.0,59.6,53.0,99,94,86,30.15,29.98,9,1,10,0.83
2013-10-31,67.1,63.4,57.3,65.0,60.1,55.0,95,89,75,29.97,29.37,18,6,25,0.77
2013-11-1,66.4,55.8,47.9,55.0,48.1,43.0,95,77,48,29.79,29.45,8,3,19,0.00
2013-11-2,56.8,45.7,35.1,45.0,40.0,34.0,97,81,57,30.15,29.79,9,1,14,0.00
2013-11-3,59.6,42.1,29.6,41.0,34.9,28.0,97,79,42,30.34,30.15,4,0,8,0.01
2013-11-4,59.1,50.4,37.0,45.0,40.5,35.0,93,70,55,30.34,30.26,7,1,10,0.00
2013-11-5,64.1,54.9,46.0,47.0,45.2,43.0,94,71,53,30.37,30.17,6,1,9,0.00
2013-11-6,60.5,55.2,42.1,57.0,49.1,40.0,95,81,62,30.16,29.98,13,4,15,0.47
2013-11-7,51.7,42.0,33.9,40.0,32.9,26.0,95,73,39,30.33,30.13,6,1,13,0.01
2013-11-8,57.8,39.5,26.0,36.0,29.9,25.0,96,72,34,30.41,30.23,7,1,10,0.00
2013-11-9,62.0,50.3,36.6,43.0,35.9,27.0,77,59,45,30.23,30.07,14,4,22,0.00
2013-11-10,59.1,45.0,30.2,43.0,33.6,28.0,94,68,33,30.36,30.17,6,1,12,0.00
2013-11-11,60.1,43.6,27.8,44.0,33.3,26.0,95,72,35,30.32,30.11,10,2,17,0.05
2013-11-12,40.6,32.6,23.1,35.0,24.3,21.0,93,73,49,30.68,30.30,15,3,19,0.04
2013-11-13,41.9,28.1,16.9,25.0,20.2,15.0,95,75,42,30.70,30.43,8,1,13,0.00
2013-11-14,55.2,41.2,28.0,25.0,21.8,18.0,75,50,26,30.43,30.15,12,4,17,0.00
2013-11-15,51.0,44.3,31.7,45.0,32.1,22.0,89,64,40,30.17,30.07,7,2,11,0.00
2013-11-16,62.3,54.8,47.7,60.0,52.1,45.0,95,90,79,30.07,29.82,13,4,16,0.01
2013-11-17,68.3,61.6,49.7,65.0,56.5,41.0,97,85,50,29.84,29.50,24,6,37,1.16
2013-11-18,55.9,46.8,37.5,43.0,35.7,29.0,96,67,43,30.23,29.84,12,2,19,0.00
2013-11-19,45.2,34.2,25.2,32.0,28.3,24.0,95,80,58,30.35,30.24,10,2,15,0.01
2013-11-20,55.0,40.0,26.3,36.0,30.8,24.0,93,72,46,30.30,30.17,7,2,11,0.00
2013-11-21,59.3,52.6,48.3,51.0,44.0,34.0,95,73,55,30.27,30.16,7,2,12,0.00
2013-11-22,54.0,48.2,38.3,52.0,45.7,34.0,97,91,81,30.41,30.15,8,2,15,0.00
2013-11-23,39.8,32.0,21.2,34.0,23.0,10.0,92,71,45,30.64,30.40,11,3,17,0.00
2013-11-24,33.3,22.2,13.0,17.0,12.9,10.0,90,69,43,30.75,30.55,6,1,11,0.00
2013-11-25,37.3,29.9,19.2,30.0,20.3,16.0,93,69,46,30.55,30.22,7,2,13,0.00
2013-11-26,36.8,34.1,31.6,33.0,29.5,26.0,95,84,69,30.25,29.97,11,1,12,0.01
2013-11-27,33.0,24.8,14.8,27.0,16.0,9.0,88,70,51,30.36,30.02,11,3,16,0.00
2013-11-28,38.6,24.6,13.1,20.0,15.8,11.0,91,72,42,30.48,30.32,11,2,18,0.00
2013-11-29,46.8,28.4,14.9,27.0,20.5,13.0,94,75,42,30.64,30.49,6,1,8,0.00
2013-11-30,54.5,37.1,22.9,32.0,26.2,21.0,94,68,39,30.50,30.19,12,2,18,0.00
2013-12-1,55.1,46.1,37.2,41.0,33.6,26.0,91,63,44,30.19,29.95,7,2,11,0.00
2013-12-2,56.8,43.8,34.0,43.0,38.2,32.0,95,82,56,29.95,29.75,4,0,6,0.00
2013-12-3,54.1,45.7,33.8,51.0,44.0,33.0,98,93,87,29.83,29.75,5,1,8,0.00
2013-12-4,67.6,57.4,43.7,61.0,54.0,42.0,98,89,73,29.80,29.64,7,3,18,0.00
2013-12-5,67.4,43.6,30.0,61.0,39.7,28.0,93,86,77,30.19,29.74,13,3,18,0.32
2013-12-6,30.1,25.7,24.0,29.0,24.1,22.0,94,93,91,30.46,30.16,8,2,12,0.00
2013-12-7,28.9,19.8,7.6,22.0,15.4,5.0,93,83,71,30.66,30.45,8,2,10,0.23
2013-12-8,32.1,25.8,20.2,31.0,23.1,16.0,97,89,82,30.53,30.05,8,3,13,0.00
2013-12-9,31.9,27.0,21.5,31.0,23.1,18.0,95,85,68,30.28,30.06,9,3,16,0.00
2013-12-10,29.8,21.3,8.7,19.0,15.7,6.0,91,80,57,30.40,30.23,8,2,16,0.03
2013-12-11,34.7,18.7,4.7,27.0,13.6,2.0,95,81,69,30.59,30.36,14,2,18,0.07
2013-12-12,25.7,15.0,-0.9,12.0,4.9,-4.0,88,67,37,30.64,30.40,6,2,10,0.00
2013-12-13,40.5,27.8,13.2,32.0,19.8,10.0,92,74,46,30.40,30.12,9,2,15,0.01
2013-12-14,37.1,34.7,30.9,36.0,33.4,29.0,97,94,91,30.13,29.74,8,2,13,0.68
2013-12-15,30.8,27.9,25.8,29.0,24.3,22.0,91,86,80,30.17,29.99,13,4,16,0.00
2013-12-16,43.3,34.4,29.5,35.0,30.8,27.0,94,87,72,30.15,30.02,6,2,12,0.00
2013-12-17,37.7,30.1,24.0,34.0,27.0,22.0,95,88,82,30.23,30.03,10,2,15,0.00
2013-12-18,43.5,32.1,17.5,23.0,20.3,16.0,95,66,34,30.33,30.07,12,3,14,0.00
2013-12-19,56.8,51.1,43.3,47.0,39.6,28.0,75,65,51,30.08,29.92,13,6,22,0.00
2013-12-20,62.3,58.5,54.7,59.0,52.7,46.0,92,81,67,29.92,29.79,17,8,24,0.03
2013-12-21,66.5,58.7,51.2,64.0,57.5,50.0,98,95,90,29.79,29.44,17,4,22,3.33
2013-12-22,61.4,44.7,34.1,60.0,43.1,31.0,97,94,89,30.12,29.43,16,5,23,0.10
2013-12-23,33.9,28.7,25.1,31.0,24.3,20.0,90,83,76,30.47,30.13,8,2,12,0.00
2013-12-24,24.7,17.9,10.7,20.0,11.2,5.0,89,76,57,30.64,30.46,7,2,12,0.00
2013-12-25,34.8,27.2,17.2,27.0,19.4,13.0,82,73,57,30.49,30.27,9,2,12,0.00
2013-12-26,43.0,33.3,26.5,30.0,26.4,23.0,91,77,52,30.41,30.25,8,2,15,0.01
2013-12-27,51.2,34.4,23.9,34.0,27.8,22.0,94,79,52,30.44,30.33,11,2,14,0.00
2013-12-28,51.4,40.4,28.4,35.0,30.3,26.0,94,69,48,30.33,30.01,8,2,11,0.00
2013-12-29,46.7,36.9,28.4,41.0,34.2,27.0,96,90,70,30.13,29.86,12,3,17,0.28
2013-12-30,28.9,24.4,19.7,27.0,18.1,13.0,92,77,55,30.32,30.13,6,2,11,0.00
2013-12-31,39.3,29.5,21.1,24.0,19.5,16.0,81,67,47,30.43,30.25,7,3,13,0.00
2014-1-1,47.0,36.6,25.9,31.0,27.4,23.0,88,70,50,30.29,30.01,12,2,14,0.00
2014-1-2,35.4,24.6,13.0,32.0,21.4,8.0,96,88,79,30.39,29.85,11,2,19,0.16